x

La Perouse Bank (46206) Wave Buoy

6:00pm - Tue 18th Jul 2017 All times are PDT. -7 hours from GMT.

  • Sig Wave height 2.0ft
  • Peak Period 6s
  • Wind
    11mph, 13mph gusts
  • Sea Temp 60°f
  • Air Temp 60°f
  • Sea Pressure 1017.9mb
  • La Perouse Bank
  • La Perouse Bank

More Historic Weather Station data

Upgrade to MSW Pro to gain access to the past 30 days of data for over 8000 Wavebouys and Weather Stations around the globe.

Join Pro

Comparision Forecast

View Surf forecast
   
Tue 07/18 6:00pm 2ft 6s 11 13 mph 1017.9mb 60f 60f
5:00pm 2ft 6s 11 13 mph 1018.3mb 60f 60f
4:00pm 2ft 6s 11 11 mph 1018.5mb 60f 60f
3:00pm 2ft 6s 9 11 mph 1018.5mb 60f 59f
2:00pm 2ft 4s 9 9 mph 1018.5mb 60f 59f
1:00pm 2ft 6s 4 7 mph 1018.4mb 59f 59f
12:00pm 2ft 5s 4 7 mph 1018.4mb 59f 59f
11:00am 2ft 13s 4 7 mph 1018.2mb 59f 59f
5:00am 2.5ft 4s 9 9 mph 1017.4mb 58f 58f
4:00am 2.5ft 4s 9 9 mph 1017.4mb 58f 58f
3:00am 2.5ft 5s 9 11 mph 1017.3mb 58f 58f
2:00am 2.5ft 4s 11 13 mph 1017.4mb 59f 58f
1:00am 2.5ft 4s 11 13 mph 1017.4mb 59f 58f
12:00am 2.5ft 4s 13 16 mph 1017.5mb 59f 58f
Mon 07/17 11:00pm 2.5ft 4s 13 16 mph 1017.5mb 59f 58f
10:00pm 2.5ft 4s 13 18 mph 1017.9mb 59f 58f
9:00pm 2.5ft 3s 13 16 mph 1017.8mb 59f 58f
7:00pm 2.5ft 6s 13 16 mph 1018.4mb 60f 59f
6:00pm 2.5ft 5s 13 16 mph 1018.7mb 60f 59f
5:00pm 2.5ft 5s 13 16 mph 1019.4mb 60f 59f
4:00pm 2.5ft 5s 11 13 mph 1019.9mb 60f 59f
3:00pm 2.5ft 6s 11 13 mph 1020.3mb 60f 59f
2:00pm 2.5ft 5s 11 13 mph 1020.6mb 59f 58f
1:00pm 2.5ft 5s 9 11 mph 1021mb 59f 58f
12:00pm 2.5ft 5s 9 9 mph 1020.9mb 59f 58f
11:00am 2.5ft 5s 4 7 mph 1020.9mb 59f 58f
10:00am 3ft 5s 2 4 mph 1021mb 58f 57f
9:00am 3ft 5s 4 4 mph 1021.1mb 58f 57f
8:00am 3.5ft 5s 9 9 mph 1021.1mb 58f 57f
7:00am 4ft 5s 11 13 mph 1021.1mb 58f 57f
6:00am 4ft 6s 11 13 mph 1021mb 58f 57f
5:00am 4ft 5s 13 16 mph 1021mb 58f 57f
4:00am 4.5ft 6s 13 16 mph 1021.2mb 58f 57f
3:00am 4.5ft 5s 18 20 mph 1021.5mb 58f 57f
2:00am 5ft 5s 18 22 mph 1022.1mb 58f 57f
1:00am 4.5ft 5s 20 22 mph 1022.5mb 59f 58f
12:00am 4.5ft 5s 18 22 mph 1022.9mb 59f 58f